Theta_e
336 335 340 341 343 337 337 336 337 338 338 337 336 336 336 334 337 340 335 333 336 338 344 338 327 327 328 328 328 329 330 329 330 334 336 330 330 331 333 330 326 321 320 320 320 321 321 322 323
341 340 341 341 338 338 337 334 335 337 336 335 334 333 336 339 335 335 334 336 337 339 341 341 327 328 328 329 329 329 329 330 335 337 332 330 330 330 331 332 332 332 331 324 320 321 321 321 322
338 340 343 341 339 339 339 334 332 332 332 333 336 337 339 337 336 336 336 337 339 339 341 339 331 329 325 327 328 328 328 331 337 338 333 332 331 331 330 331 331 332 333 334 332 325 321 321 322
342 343 341 340 340 338 338 336 334 334 333 334 335 338 338 338 338 337 337 338 340 344 346 345 339 340 338 325 328 330 331 331 336 338 334 332 332 331 331 331 330 330 330 331 333 332 331 326 321
341 341 340 340 340 338 338 337 335 336 336 337 338 340 339 336 335 338 339 341 343 343 344 346 340 334 340 336 340 339 338 337 335 338 336 335 334 334 334 331 330 330 329 331 332 332 332 332 330
337 339 343 341 340 339 338 336 336 337 338 338 340 342 343 341 341 341 342 342 342 341 342 342 342 338 338 337 338 339 339 338 338 337 336 334 332 329 328 328 326 330 331 331 331 331 332 332 332
334 338 340 340 341 340 339 338 338 338 339 340 340 343 342 343 342 343 342 341 340 339 339 338 337 338 340 341 336 335 336 338 338 336 335 330 329 328 326 324 323 323 328 329 329 329 328 328 328
332 339 340 340 342 341 339 339 339 339 339 338 340 344 343 343 343 341 339 338 334 331 328 328 329 330 333 337 334 334 334 335 333 331 329 328 329 326 324 323 318 317 318 319 320 321 324 325 326
332 339 341 341 341 341 339 341 340 339 340 340 340 340 341 343 342 340 338 332 328 325 323 323 325 328 330 332 334 335 332 330 329 328 327 327 325 324 319 318 316 313 312 311 313 313 312 316 319
332 339 338 339 340 339 339 340 340 341 341 341 341 342 341 341 339 334 329 325 324 323 322 323 325 328 329 329 330 330 329 328 327 325 322 323 321 320 319 319 319 319 318 319 318 320 323 325 326
338 340 339 340 339 340 341 340 340 341 343 342 342 342 341 338 331 327 325 324 323 322 322 324 327 330 330 329 328 327 326 326 325 324 319 320 320 320 320 320 320 321 320 321 320 320 320 322 324
338 339 339 340 340 340 340 339 340 342 341 342 342 341 337 331 327 327 325 324 323 322 322 324 327 329 329 328 326 326 325 324 323 322 321 321 321 321 321 321 322 321 321 321 321 321 321 321 321
340 341 340 340 340 339 340 342 343 342 342 343 343 339 334 329 328 328 327 326 324 323 322 322 325 327 327 326 326 325 324 323 322 321 321 322 322 322 322 322 321 320 319 320 320 320 321 321 320
340 340 340 340 339 339 342 342 342 341 342 343 342 339 333 330 329 329 328 328 326 325 323 321 322 324 325 325 324 324 323 321 321 321 321 322 322 321 321 320 320 320 320 320 320 320 320 321 320
340 342 341 339 338 339 340 342 344 341 342 342 342 340 335 331 331 331 330 330 327 326 324 321 321 322 323 323 322 322 321 321 321 321 322 321 321 320 321 320 320 320 320 320 320 320 320 320 320
343 343 347 341 338 339 341 348 343 342 342 342 342 341 338 333 332 331 331 330 328 326 325 322 320 321 322 322 322 322 321 321 320 321 321 320 320 319 320 320 320 320 320 320 319 319 320 320 320
344 342 337 343 340 342 341 344 343 340 342 341 341 341 340 338 335 333 331 330 328 327 325 322 320 321 322 323 322 321 321 320 321 321 320 320 319 319 320 320 320 320 320 319 317 318 319 320 319
337 333 336 339 342 341 343 343 343 340 340 341 340 341 339 339 337 335 332 331 329 328 326 323 320 312 321 321 320 320 321 320 321 321 320 319 319 319 319 319 319 318 319 318 316 316 318 319 319
333 334 336 337 342 342 342 342 343 341 340 339 341 340 338 338 338 337 334 332 331 330 327 323 321 313 321 320 320 320 320 320 321 320 320 320 319 319 319 318 318 317 318 318 315 315 316 317 317
334 336 337 339 340 341 343 342 342 341 340 339 340 339 338 338 338 339 335 334 332 331 327 325 321 313 319 321 321 322 321 321 320 320 320 320 319 318 317 317 317 316 318 317 315 314 315 315 316
335 334 335 335 338 341 340 343 343 341 339 340 339 340 338 338 338 339 336 336 333 332 329 325 322 320 313 319 321 322 322 322 320 320 320 320 319 318 317 317 317 315 317 315 313 314 313 313 315
340 335 335 337 339 340 337 335 346 344 343 341 340 338 338 337 336 338 335 336 334 332 329 325 323 320 319 313 322 322 322 321 321 320 320 319 319 318 317 317 316 316 316 314 313 313 313 313 313
335 335 337 337 339 340 343 334 345 343 343 342 340 338 337 337 336 337 333 334 334 332 329 325 324 323 321 320 319 322 322 321 321 320 320 319 319 318 317 316 316 316 315 314 313 312 312 313 313
336 338 341 341 343 344 340 334 340 342 338 337 339 337 336 336 337 337 335 334 334 331 328 325 324 323 322 321 322 322 322 321 321 320 320 319 318 318 317 316 316 316 315 315 313 313 312 313 312
336 340 344 342 346 340 338 334 336 337 336 335 336 337 336 336 337 338 336 335 333 332 329 325 324 323 322 321 321 322 321 321 321 321 320 320 318 318 318 317 316 315 314 315 314 315 313 312 313
337 337 340 340 337 336 342 336 336 335 334 336 335 336 337 336 336 338 337 335 333 332 330 326 324 323 322 321 321 321 321 321 322 321 320 321 318 318 318 316 316 316 315 315 314 315 314 312 313
338 338 336 338 339 338 339 336 338 337 337 336 337 336 337 337 337 337 337 336 332 333 331 326 323 323 322 321 321 322 321 321 320 320 319 320 319 318 318 317 316 316 316 316 315 314 314 314 313
335 335 335 337 337 337 335 337 337 335 336 338 338 337 336 338 337 337 336 336 333 332 331 327 323 323 322 322 321 321 321 320 320 320 319 319 320 319 318 317 316 316 316 315 315 314 314 314 313
336 337 339 339 337 337 340 335 335 336 336 337 337 337 337 338 338 337 337 335 333 332 330 328 324 323 322 322 321 321 321 321 320 320 320 319 319 319 319 317 316 316 316 316 315 316 315 315 313
333 334 336 336 336 334 334 335 335 336 335 336 335 335 335 336 336 335 336 334 333 332 330 327 324 321 321 321 321 321 321 321 321 321 320 319 319 319 318 318 317 316 316 316 315 315 314 315 315
Wind_Speed
4 2 5 10 6 10 16 17 15 17 16 16 21 22 21 23 16 7 7 8 7 6 5 4 4 4 4 4 4 4 4 4 5 6 8 10 11 12 13 13 14 15 15 16 15 15 14 13 12
2 7 8 11 3 13 12 13 15 15 18 17 20 22 23 19 21 17 11 8 6 5 4 2 6 5 4 4 4 4 4 5 5 7 10 11 11 12 13 13 13 15 17 19 19 19 18 17 17
3 11 15 7 11 14 13 14 14 13 12 12 14 15 10 14 14 11 9 7 6 4 2 10 10 9 8 6 6 6 6 7 8 10 11 11 13 14 14 14 14 14 14 15 19 20 21 21 20
6 10 14 13 16 14 13 10 13 17 16 16 18 15 14 9 9 9 8 6 5 8 13 14 13 11 9 8 7 8 8 8 9 10 11 12 12 12 12 13 15 16 17 16 16 17 19 20 21
10 15 4 15 15 13 12 11 14 12 17 18 20 17 17 12 11 8 8 6 7 7 8 10 17 12 9 8 9 10 10 11 10 11 12 13 14 13 14 15 16 17 18 18 17 17 18 18 20
18 10 7 15 15 10 11 10 14 17 15 18 19 17 15 11 11 8 7 7 8 9 9 10 14 17 16 13 10 8 8 8 10 12 13 13 12 13 13 14 15 15 14 14 14 15 16 16 19
19 4 15 9 15 15 11 11 15 16 14 14 14 17 16 13 9 8 8 9 9 9 9 12 11 16 14 10 14 10 9 8 8 10 10 10 14 14 15 18 17 16 15 14 14 14 12 12 14
17 15 12 8 12 17 11 10 10 10 12 7 7 4 16 10 8 7 8 8 9 11 11 11 11 8 8 16 14 13 12 10 9 11 9 13 13 16 15 19 20 20 19 19 19 19 18 18 18
12 5 11 15 13 16 9 15 13 14 17 16 17 20 15 9 6 6 7 10 11 12 14 13 12 10 7 6 13 13 14 15 12 10 10 10 9 13 14 18 22 17 16 14 16 16 15 16 14
14 11 17 14 13 10 10 15 9 15 15 16 17 14 11 9 8 8 9 10 13 14 13 14 12 10 8 6 6 5 7 8 10 11 12 11 11 13 14 13 19 19 21 18 16 17 15 13 11
16 15 12 13 10 13 10 8 14 9 10 10 14 12 11 9 9 10 10 12 13 14 15 15 13 11 9 7 6 5 7 8 10 15 14 12 12 13 12 12 12 14 16 14 14 13 12 11 10
13 12 11 11 6 6 9 9 11 8 11 11 11 11 11 9 9 9 12 12 14 15 15 14 13 11 10 8 7 7 8 8 10 12 15 14 12 12 13 13 13 14 15 16 15 13 15 13 12
12 10 10 8 11 9 8 12 14 13 11 11 11 10 10 9 8 9 10 12 14 15 16 15 13 11 10 9 7 8 8 9 10 11 14 14 12 13 12 14 14 16 16 15 15 15 15 14 13
10 12 12 13 11 11 12 17 11 10 11 11 11 10 9 8 7 8 9 11 13 14 15 13 11 10 8 8 9 8 8 9 9 10 12 13 13 15 13 15 16 17 16 16 16 16 15 14 13
14 9 7 11 10 10 14 11 10 12 10 11 11 9 8 7 6 7 7 9 10 13 14 13 11 10 9 8 7 7 7 8 9 9 12 14 15 16 15 14 15 16 15 16 16 16 15 14 14
11 15 9 10 9 7 10 11 13 11 10 10 10 9 8 6 4 4 5 6 8 10 12 13 9 7 8 8 9 8 8 8 9 10 11 14 15 17 14 14 15 14 14 15 15 15 15 15 14
19 6 7 11 8 2 10 13 18 14 13 12 12 11 10 7 5 4 2 3 5 7 10 11 9 8 8 9 9 10 11 8 9 9 11 14 14 16 14 13 14 15 14 14 15 15 15 14 16
5 12 8 7 10 5 6 9 16 17 14 12 11 11 10 9 7 6 4 1 2 5 8 10 10 11 9 9 9 9 8 7 8 8 11 13 14 16 15 13 15 15 14 14 19 16 16 15 14
7 7 5 6 5 6 6 3 13 18 15 11 11 10 11 8 7 8 6 3 1 3 6 9 9 11 9 7 8 7 7 8 7 8 11 13 15 15 15 14 14 15 13 16 18 17 16 16 17
4 5 12 3 3 6 4 9 12 19 18 17 15 12 11 9 9 8 7 6 3 2 4 7 8 10 7 5 8 7 6 6 8 9 10 13 14 15 14 16 14 15 13 16 18 18 16 13 15
6 10 9 8 2 10 10 14 12 13 15 16 16 14 12 10 11 11 9 8 5 3 2 3 6 8 8 9 6 6 6 6 8 9 10 11 13 13 15 15 15 18 15 16 15 15 14 12 11
18 7 5 3 8 0 3 6 13 12 12 13 15 14 14 12 8 10 8 9 8 5 2 2 3 5 7 6 4 6 6 7 8 8 10 11 12 13 14 15 16 16 15 19 17 15 12 13 12
8 6 7 7 12 8 11 7 10 11 10 13 15 16 13 12 12 12 9 9 8 7 3 3 1 3 5 3 4 5 5 5 7 8 10 11 11 12 14 13 14 15 14 19 17 14 16 13 12
2 7 8 12 17 3 4 5 7 6 4 5 16 16 12 12 11 9 7 8 9 7 4 3 2 1 3 3 3 5 6 6 5 9 9 9 10 10 15 12 13 13 14 15 15 17 15 12 12
8 15 4 3 4 5 5 2 8 9 3 6 5 17 17 15 11 11 11 9 9 8 6 4 3 2 1 2 3 4 6 6 8 9 8 9 9 11 13 12 12 12 14 13 16 13 14 13 12
7 8 8 13 11 10 25 1 6 8 5 5 6 8 16 18 14 11 12 8 9 9 7 5 5 2 3 2 2 4 6 4 6 8 7 7 10 11 12 11 10 11 13 14 12 13 13 17 14
3 7 9 9 14 5 2 8 14 5 3 2 6 10 12 12 10 13 12 10 9 10 9 6 5 5 4 3 3 3 5 5 6 8 7 7 9 10 11 11 10 10 11 12 13 12 15 15 15
9 10 10 7 9 10 7 9 5 6 8 4 4 8 11 9 12 13 11 12 11 10 9 7 6 6 6 6 4 4 5 5 6 7 12 10 8 9 11 11 11 10 11 13 13 13 12 15 15
7 11 7 17 5 10 12 9 8 5 6 3 2 7 10 12 14 13 13 13 12 10 9 8 7 7 6 7 7 6 6 6 7 8 9 13 11 10 10 11 11 11 11 12 14 14 15 15 14
10 14 8 7 12 14 12 11 6 2 4 5 2 5 8 10 10 10 12 13 13 12 11 10 8 8 8 8 9 8 8 7 8 10 10 12 12 11 11 10 11 11 12 12 14 14 15 16 14
Wind_Direction
127 221 305 270 241 71 64 55 43 74 70 69 60 71 63 49 27 70 101 92 101 90 38 21 29 24 24 21 16 10 11 354 350 345 338 337 337 333 318 306 300 294 288 285 283 284 288 293 296
276 255 271 306 91 85 73 78 78 87 93 99 102 94 71 58 77 108 91 93 87 73 91 26 359 345 351 353 344 330 332 332 334 334 343 347 345 341 334 324 313 302 293 288 283 281 279 279 283
256 269 269 216 73 71 81 83 88 93 102 105 84 63 55 80 66 91 94 86 68 58 53 348 345 333 325 324 326 323 323 323 328 336 341 346 345 342 340 336 332 328 318 301 287 282 278 275 276
283 257 267 74 78 83 96 106 125 120 93 95 107 84 81 79 92 99 91 76 51 25 15 346 351 340 312 311 320 319 316 313 319 325 333 339 340 336 331 325 320 318 315 309 294 285 281 279 274
275 271 82 96 81 71 68 65 89 98 97 87 91 99 90 83 92 85 73 59 33 16 20 354 360 8 5 333 327 324 322 319 317 321 327 327 328 327 325 323 321 314 307 302 295 292 285 279 273
289 1 191 86 94 97 73 55 69 90 99 110 109 95 95 97 92 75 64 49 33 19 14 21 353 9 8 356 341 334 325 319 316 322 326 328 332 332 333 332 331 324 318 310 305 302 294 292 281
291 276 66 58 68 99 73 63 64 69 70 40 123 110 111 98 87 70 54 39 29 22 11 9 13 0 351 359 338 342 336 332 324 325 333 338 349 340 342 333 331 325 316 311 306 305 302 299 299
298 7 92 117 31 90 84 91 69 97 81 52 42 221 97 96 83 66 54 36 25 16 13 5 1 358 348 350 345 6 4 8 10 12 14 19 1 346 340 330 325 316 310 306 302 296 293 291 294
281 27 73 52 156 85 96 85 65 91 86 74 73 77 93 94 73 51 36 21 25 19 14 8 5 8 1 342 351 17 7 26 28 17 5 15 333 337 344 329 338 353 355 345 336 331 328 330 316
287 51 57 47 52 77 103 102 122 108 102 98 92 89 93 89 74 57 43 32 26 22 16 15 8 20 22 15 20 14 10 9 17 8 5 353 350 346 5 351 353 1 359 2 3 357 7 350 320
19 59 76 63 47 79 74 124 116 95 105 133 103 108 97 86 74 62 54 40 30 21 22 19 16 25 38 22 31 20 13 13 0 359 12 358 6 359 3 1 356 358 351 353 358 356 348 341 332
81 69 76 78 73 71 66 129 85 98 99 97 112 114 106 91 81 68 55 42 32 27 27 22 25 34 30 44 31 24 11 15 5 7 9 7 5 4 1 355 356 352 348 348 348 346 343 347 339
96 96 106 100 84 76 119 99 108 111 119 121 122 124 111 105 95 76 56 43 36 30 26 24 23 29 31 32 33 17 25 9 17 8 4 9 12 1 358 354 352 347 346 342 339 336 336 339 337
125 135 133 125 118 114 116 121 129 136 134 136 144 141 132 120 103 77 55 42 31 33 27 23 24 23 27 26 26 27 17 13 13 5 7 11 12 359 357 351 350 345 349 345 341 336 335 333 329
132 138 128 141 119 131 137 171 118 151 166 156 161 158 143 134 102 78 64 52 41 25 26 29 19 23 36 32 42 24 27 20 15 11 359 11 2 355 5 349 349 347 355 352 348 347 343 334 330
152 299 157 135 154 150 231 140 147 167 178 173 175 165 168 159 131 99 70 58 41 37 25 19 27 26 20 38 29 28 23 25 20 16 2 7 359 353 7 352 352 2 356 354 353 350 348 345 339
277 190 96 135 184 130 258 134 164 182 201 180 194 172 184 190 173 145 105 50 45 33 32 25 22 29 33 12 25 17 13 20 20 12 0 1 359 359 9 355 357 14 356 355 355 354 348 345 339
309 358 78 83 134 219 240 113 158 189 199 195 207 178 198 205 208 197 180 150 51 36 31 26 28 31 38 28 20 10 7 13 13 3 1 0 1 1 4 1 1 7 353 351 353 4 350 348 337
341 329 23 73 94 262 255 266 169 192 199 211 209 189 212 211 182 195 195 200 312 17 20 24 20 28 53 35 29 22 14 3 4 356 0 2 3 1 1 3 0 1 4 353 352 355 351 351 344
289 312 50 139 138 245 149 250 179 191 200 206 207 218 206 201 188 204 216 215 233 290 17 19 20 16 41 37 25 15 7 4 4 348 355 356 4 2 5 8 357 4 5 349 353 356 354 354 353
37 7 4 355 215 234 278 220 192 192 200 210 216 204 225 197 198 191 220 223 231 256 316 2 15 17 31 63 19 23 12 357 348 355 343 355 2 6 5 5 354 15 5 353 353 353 351 359 5
82 341 308 281 276 203 276 325 176 191 205 210 219 219 216 211 199 191 200 221 222 231 228 316 6 33 351 55 22 23 17 356 353 355 340 358 356 4 9 6 359 0 8 343 355 356 8 7 7
15 319 287 283 266 277 178 299 145 172 192 211 218 221 219 218 198 206 198 211 215 212 228 238 341 10 10 22 40 32 356 354 349 354 355 351 354 357 0 5 6 360 5 350 352 7 7 3 1
21 263 3 298 328 129 315 20 75 123 7 251 189 202 192 218 198 196 185 193 197 207 213 220 234 324 6 5 354 353 346 340 1 352 358 350 347 351 335 6 7 1 4 356 359 8 8 1 360
263 296 251 222 247 159 82 211 32 30 39 310 215 186 192 206 222 184 193 190 200 205 211 238 248 290 323 352 329 330 332 350 351 351 339 353 343 340 339 359 360 5 3 5 8 2 13 0 358
220 330 356 315 337 340 17 357 88 56 32 320 273 215 196 202 217 202 189 186 208 207 211 227 247 265 267 297 299 327 327 342 348 329 336 349 337 333 336 344 351 358 2 5 18 354 4 2 3
181 284 355 306 304 271 168 346 109 145 133 300 248 240 203 205 214 211 205 191 200 200 208 217 225 239 240 250 276 309 320 325 321 323 335 332 326 330 326 333 335 346 352 355 7 356 357 355 354
268 332 291 212 304 339 303 35 317 43 46 89 245 229 230 203 224 214 218 186 196 201 209 214 230 249 245 234 249 276 290 313 317 321 316 313 318 320 328 325 323 332 335 343 349 357 351 350 353
170 273 43 292 299 316 338 333 80 15 62 38 240 203 222 218 225 205 215 195 197 201 210 219 231 239 247 254 243 252 271 293 307 314 311 306 306 317 318 321 318 319 325 329 334 341 341 336 349
292 282 266 327 327 330 298 298 178 264 122 126 263 211 225 222 225 215 206 199 202 203 207 221 224 234 245 241 248 254 264 277 291 299 304 310 307 308 312 313 315 313 315 319 328 332 332 333 330